FALCON 9 R/B, 62364

Orbit data source: Space-Track

FALCON 9 R/B, 62364 is space debris in LEO originally from a launch on Tue, 17 Dec 2024 UTC launched from the Air Force Eastern Test Range (AFETR). Debris objects in space refer to the collection of defunct objects orbiting the Earth. Examples of debris include non-operational satellites, rocket bodies, and fragments generated from explosions, collisions, or faulty payload assembly.

Loading next visibility...
Identifier
62364, 2024-244C
Orbit
LEO
Country
Flag of USUS
Related business
Manufacturer
SpaceX
Mission
Spacecraft
Bus & Motor
F9ST2, Unknown motor
Mass
~4,000 kg wet, ~4,000 kg dry
Launch date (UTC)
2024-12-17 (2 years ago)
Launch vehicle
Unknown
Launch site
Air Force Eastern Test Range (AFETR)
Object type
Payload
Rocket body
Debris
Shape & HBR
Cyl, 7.8 m
Radar Cross Section
39.980 m², Large (>1 m²)

Expand to show TLE details & history
Last TLE update: 4 days ago

TLE from 4 days ago
0 FALCON 9 R/B
1 62364U 24244C   26167.38828516  .00000041  00000-0 -41633-2 0  9995
2 62364   8.8425 169.1736 1933288 325.2919  23.4883  7.31339392 39930
Epoch: 2026-06-16T09:19Z
TLE epoch observation values (Epoch: 2026-06-16T09:19:07.837Z)
Latitude
Longitude
124.72994°
Altitude
2,932.73 km
Speed
7.077 km/s
True Right ascension
11h 16m 41s
True Declination
0° 00' 00"
Sunlit
Object was in daylight at epoch
Visualization orbit readout
Latitude
Unknown
Longitude
Unknown
Altitude
Unknown
Speed
Unknown
Apparent Right ascension
Unknown
Apparent Declination
Unknown
Sunlit
N/A
Visualization observer readout
Local Sidereal Time
07:12:32
Azimuth
Unknown
Elevation
Unknown
Doppler factor
Unknown
Orbital elements
Apogee altitude
7,005.424 km
Perigee altitude
2,668.936 km
Semi-major axis
11,215.317 km
Eccentricity
0.19333
Inclination
8.8425°
RAAN
169.1736°
Arg. of periapsis
325.2919°
True anomaly
34.7208°
Mean anomaly
23.4883°
Eccentric anomaly
28.82968°
Mean motion
1.82737 °/min
Orbital period
197 mins
BSTAR
-0.0041633
Loading maneuver chart data...
Computing Atmospheric mass density...
Loading historical data...
Loading historical data...
Loading historical data...
Loading historical data...
Loading historical data...
Loading historical data...
Loading historical data...
Other satellites on launch #244 in the year 2024 (2024-12-17 UTC)

Documentation

Showing up to 5 results
|